Location: Newark
(48.1500°N, 2.9667°W)
Time: 21:05:14
(UTC+00:00)

A-11 Canister half - Pass Details

Date: 20 January 2020
Orbit: 1524 x 1684 km, 47.3° (Epoch: 19 February)

Event Time Altitude Azimuth Distance (km) Brightness Sun altitude
Rises 00:34:21 0° 287° (WNW) 4,780 - -62.0°
Reaches altitude 10° 00:37:26 10° 284° (WNW) 3,815 - -62.0°
Maximum altitude 00:46:56 60° 208° (SSW) 1,840 - -61.7°
Drops below altitude 10° 00:56:42 10° 132° (SE) 3,918 - -61.3°
Sets 00:59:55 0° 129° (SE) 4,916 - -61.1°
